Location: Unspecified
(34.4950°S, 58.5160°W)
Time: 01:36:58
(UTC+00:00)

USA 229 DEB - Pass Details

Date: 19 April 2026
Orbit: 844 x 1364 km, 63.4° (Epoch: 10 January)

Event Time Altitude Azimuth Distance (km) Brightness Sun altitude
Exits shadow 08:05:01 38° 333° (NNW) 1,913 4.7 -28.6°
Maximum altitude 08:08:41 88° 59° (ENE) 1,303 4.0 -27.8°
Drops below altitude 10° 08:16:26 10° 149° (SSE) 3,151 6.6 -26.2°
Sets 08:19:03 0° 148° (SSE) 4,049 7.2 -25.7°
